Simultaneous Nadir Overpasses (SNOs) Predictions

Prediction of SNOs between LANDSAT-8 and METOP-B Satellite Orbit:

Table of predicted SNOs for the next 14.0 days since TLE Epoch: 9/26/2020
Index Date (LANDSAT-8) Time (LANDSAT-8) Lat,Lon (LANDSAT-8) SZA (LANDSAT-8 ) Date (METOP-B) Time (METOP-B) Lat,Lon (METOP-B) SZA (METOP-B ) Distance(km) Time Diff (sec)
1 09/26/2020 08:39:42 81.10, 89.79 84.83 09/26/2020 08:39:04 81.10, 89.74 84.81 0.95 38
2 09/26/2020 09:29:08 -81.12,-102.27 95.12 09/26/2020 09:29:43 -81.13,-102.13 95.08 2.53 35
3 09/29/2020 04:13:58 81.10, 156.16 85.93 09/29/2020 04:13:28 81.10, 156.17 85.93 0.53 30
4 09/29/2020 05:03:24 -81.12, -35.88 94.01 09/29/2020 05:04:08 -81.12, -36.02 94.00 2.39 44
5 10/01/2020 23:48:13 81.12,-137.15 87.08 10/01/2020 23:47:51 81.12,-137.01 87.09 2.46 22
6 10/02/2020 00:37:39 -81.14, 30.83 92.86 10/02/2020 00:38:31 -81.13, 30.84 92.84 0.42 52
7 10/04/2020 19:22:28 81.11, -70.86 88.16 10/04/2020 19:22:15 81.11, -70.94 88.15 1.32 13
8 10/04/2020 20:11:54 -81.13, 97.14 91.77 10/04/2020 20:12:55 -81.13, 96.96 91.77 3.29 61
9 10/07/2020 14:56:43 81.12, -4.24 89.28 10/07/2020 14:56:38 81.12, -4.11 89.30 2.37 5
